sat.trackr.live / text

‹ back to catalog

STARLINK-32858

NORAD 62962 · 2025-029Q

PAYLOAD ACTIVE UNKNOWN

§ Identity

Operator
Country
US
Launch date
2025-02-11
Launch site
AFWTR
Launch vehicle
Mass (kg)
RCS (m²)

Purposes: comms

External: N2YO · Heavens-Above · Gunter

§ Orbital elements

Epoch: 2026-05-24T23:39:23.465664Z

Period
94.11 min
Inclination
53.1594°
Eccentricity
0.0001529
Mean motion
15.30201238 rev/d
Perigee alt
474.2 km
Apogee alt
476.3 km
Semi-major
6,853.3 km
B*
8.8397e-4
RAAN
237.7290°
Arg perigee
91.3204°
Mean anomaly
268.7972°
Rev number
7,298

§ Raw data

STARLINK-328581 62962U 25029Q   26144.98568826  .00025914  00000+0  88397-3 0  99902 62962  53.1594 237.7290 0001529  91.3204 268.7972 15.30201238 72982

JSON: /api/v1/satellites/62962 · /tle

For live sub-satellite position, see the globe view (requires WebGL).

§ Visibility from observer

Set your observer location to see the next 7 days of passes ≥ 10°. The values pass through the URL so the page stays shareable.

No JS? Fill the form by hand. The geolocation button needs JavaScript.